Huntsville, AL

9:12 PM CST on February 05, 2016 (GMT -0600)
Huntsville International

Weather History for KHSV - January, 2013

Change the Weather History Date:

Sunday, January 6, 2013

  Actual Average Record
Temperature  
Mean Temperature 43 °F 41 °F  
Max Temperature 50 °F 51 °F 72 °F (1946)
Min Temperature 35 °F 32 °F 8 °F (2014)
Degree Days  
Heating Degree Days 22 24  
Month to date heating degree days 150 144  
Since 1 July heating degree days 1258 1325  
Cooling Degree Days 0 0  
Month to date cooling degree days 0 0  
Year to date cooling degree days 0 0  
Moisture  
Dew Point 37 °F    
Average Humidity 81    
Maximum Humidity 100    
Minimum Humidity 61    
Precipitation  
Precipitation T in 0.16 in 2.69 in (2009)
Month to date precipitation 1.58 0.97  
Year to date precipitation 1.58 0.97  
Snow  
Snow 0.00 in - - ()
Month to date snowfall 0.0  
Since 1 July snowfall T  
Snow Depth 0.00 in    
Sea Level Pressure  
Sea Level Pressure 30.26 in    
Wind  
Wind Speed 5 mph (West)    
Max Wind Speed 14 mph    
Max Gust Speed 17 mph    
Visibility 7 miles    
Events Rain    
T = Trace of Precipitation, MM = Missing Value Source: NWS Daily Summary

Daily Weather History Graph

Daily Weather History Graph

Search for Another Location

Airport or City:

Trip Planner

Search our weather history database for the weather conditions in past years. The results will help you decide how hot, cold, wet, or windy it might be!

Date:

Astronomy

Jan. 06, 2013 Rise Set
Actual Time 6:54 AM CST 4:51 PM CST
Civil Twilight 6:27 AM CST 5:19 PM CST
Nautical Twilight 5:55 AM CST 5:50 PM CST
Astronomical Twilight 5:25 AM CST 6:21 PM CST
Moon 1:14 AM CST 12:14 PM CST
Length of Visible Light 10h 52m
Length of Day
9h 56m
Waning Crescent, 33% of the Moon is Illuminated
Jan 6
Waning Crescent
Jan 11
New
Jan 18
First Quarter
Jan 26
Full
Feb 3
Last Quarter

Hourly Weather History & Observations

Time (CST) Temp. Windchill Dew Point Humidity Pressure Visibility Wind Dir Wind Speed Gust Speed Precip Events Conditions
12:25 AM 39.2 °F 35.9 °F 39.2 °F 100% 30.27 in 5.0 mi South 4.6 mph - 0.00 in   Overcast
12:42 AM 39.2 °F 35.9 °F 39.2 °F 100% 30.27 in 4.0 mi South 4.6 mph - 0.00 in   Overcast
12:53 AM 39.9 °F 36.7 °F 39.0 °F 97% 30.27 in 4.0 mi South 4.6 mph - 0.00 in   Overcast
1:01 AM 39.2 °F 37.0 °F 39.2 °F 100% 30.27 in 4.0 mi South 3.5 mph - N/A   Overcast
1:53 AM 39.9 °F - 39.0 °F 97% 30.27 in 7.0 mi Calm Calm - N/A   Overcast
2:49 AM 39.2 °F - 39.2 °F 100% 30.26 in 7.0 mi Calm Calm - N/A   Overcast
2:53 AM 39.2 °F - 39.2 °F 100% 30.25 in 6.0 mi Calm Calm - N/A   Overcast
3:03 AM 39.2 °F - 39.2 °F 100% 30.25 in 6.0 mi Calm Calm - N/A   Overcast
3:41 AM 39.2 °F 37.0 °F 39.2 °F 100% 30.25 in 2.5 mi SW 3.5 mph - N/A   Overcast
3:53 AM 39.9 °F 36.7 °F 39.0 °F 97% 30.24 in 3.0 mi WSW 4.6 mph - N/A   Overcast
4:16 AM 39.2 °F 37.0 °F 39.2 °F 100% 30.23 in 4.0 mi WSW 3.5 mph - N/A   Overcast
4:33 AM 39.2 °F 35.9 °F 39.2 °F 100% 30.24 in 4.0 mi West 4.6 mph - N/A   Overcast
4:46 AM 39.2 °F 35.9 °F 39.2 °F 100% 30.24 in 4.0 mi West 4.6 mph - N/A   Overcast
4:53 AM 39.9 °F 37.8 °F 39.0 °F 97% 30.25 in 5.0 mi West 3.5 mph - N/A   Overcast
5:01 AM 39.2 °F 37.0 °F 39.2 °F 100% 30.24 in 4.0 mi WSW 3.5 mph - N/A   Overcast
5:10 AM 39.2 °F 37.0 °F 39.2 °F 100% 30.24 in 5.0 mi West 3.5 mph - N/A   Overcast
5:27 AM 39.2 °F - 39.2 °F 100% 30.25 in 4.0 mi Calm Calm - N/A   Overcast
5:53 AM 39.9 °F - 39.0 °F 97% 30.25 in 4.0 mi Calm Calm - N/A   Overcast
6:16 AM 39.2 °F - 39.2 °F 100% 30.25 in 3.0 mi Calm Calm - N/A   Overcast
6:46 AM 39.2 °F 37.0 °F 39.2 °F 100% 30.26 in 4.0 mi SW 3.5 mph - N/A   Overcast
6:53 AM 39.9 °F 37.8 °F 39.9 °F 100% 30.27 in 5.0 mi SW 3.5 mph - N/A   Overcast
7:53 AM 39.9 °F 36.7 °F 39.0 °F 97% 30.27 in 5.0 mi West 4.6 mph - N/A   Overcast
8:20 AM 41.0 °F 39.0 °F 39.2 °F 93% 30.27 in 7.0 mi West 3.5 mph - N/A   Overcast
8:53 AM 41.0 °F 39.0 °F 39.0 °F 93% 30.29 in 8.0 mi WSW 3.5 mph - N/A   Overcast
9:53 AM 43.0 °F 41.3 °F 39.0 °F 86% 30.28 in 10.0 mi Variable 3.5 mph - N/A   Mostly Cloudy
10:15 AM 46.4 °F 45.2 °F 39.2 °F 76% 30.27 in 10.0 mi WNW 3.5 mph - N/A   Scattered Clouds
10:31 AM 44.6 °F 42.2 °F 37.4 °F 76% 30.27 in 10.0 mi West 4.6 mph - 0.00 in Rain Light Rain
10:53 AM 46.0 °F 43.1 °F 37.9 °F 73% 30.26 in 10.0 mi West 5.8 mph - 0.00 in   Mostly Cloudy
11:38 AM 46.4 °F 42.9 °F 37.4 °F 71% 30.24 in 10.0 mi WNW 6.9 mph - N/A   Scattered Clouds
11:53 AM 46.0 °F 41.9 °F 37.0 °F 71% 30.25 in 10.0 mi West 8.1 mph - N/A   Mostly Cloudy
12:53 PM 48.9 °F - 39.0 °F 69% 30.23 in 10.0 mi Variable 5.8 mph - N/A   Mostly Cloudy
1:53 PM 48.9 °F - 37.9 °F 66% 30.22 in 10.0 mi NNW 8.1 mph - N/A   Mostly Cloudy
2:12 PM 48.2 °F - 37.4 °F 66% 30.22 in 10.0 mi WNW 9.2 mph - N/A   Scattered Clouds
2:53 PM 48.9 °F - 36.0 °F 61% 30.22 in 10.0 mi West 10.4 mph - N/A   Scattered Clouds
3:53 PM 48.0 °F - 36.0 °F 63% 30.23 in 10.0 mi WNW 6.9 mph - N/A   Partly Cloudy
4:53 PM 45.0 °F 42.6 °F 36.0 °F 71% 30.24 in 10.0 mi NW 4.6 mph - N/A   Partly Cloudy
5:53 PM 43.0 °F - 35.1 °F 74% 30.26 in 10.0 mi Calm Calm - N/A   Clear
6:53 PM 41.0 °F 38.0 °F 35.1 °F 79% 30.29 in 10.0 mi NNW 4.6 mph - N/A   Clear
7:53 PM 39.0 °F 36.8 °F 33.1 °F 79% 30.30 in 10.0 mi North 3.5 mph - N/A   Clear
8:53 PM 37.0 °F 34.5 °F 32.0 °F 82% 30.33 in 10.0 mi WNW 3.5 mph - N/A   Clear
9:53 PM 39.0 °F 33.4 °F 32.0 °F 76% 30.34 in 10.0 mi North 8.1 mph - N/A   Clear
10:53 PM 37.0 °F 30.4 °F 30.9 °F 79% 30.34 in 10.0 mi NNE 9.2 mph - N/A   Partly Cloudy
11:53 PM 35.1 °F 27.4 °F 30.9 °F 85% 30.34 in 10.0 mi North 10.4 mph - N/A   Partly Cloudy